DAL68 KMCO-GOBD

Flight info

Callsign DAL68
Flight time 7h 31m
Altitude 37000
Route MZULO3 LENDS M203 SNAGY 2960N 2957N 2950N 2945N 2842N 2740N 2434N ULTEM UR976 LUMPO R976 LIGOV
Aircraft A339/H-SADE1E2E3GHIJ3J5M1P2RWXY/LB2D1

Departure

Time 2026-04-25 13:22
Airport Orlando International Airport (KMCO)

Arrival

Time 2026-04-25 20:53
Airport Blaise Diagne International Airport (GOBD)
Time Latitude Longitude Altitude Speed Heading
2026-04-25 12:34 28.42663 -81.30277 109 ft 0 kts
2026-04-25 12:57 28.42661 -81.30278 109 ft 2 kts
2026-04-25 12:57 28.42645 -81.30278 106 ft 2 kts
2026-04-25 12:57 28.42628 -81.30278 105 ft 2 kts 13°
2026-04-25 12:58 28.42612 -81.30292 106 ft 2 kts 277°
2026-04-25 12:58 28.42613 -81.30275 106 ft 2 kts 95°
2026-04-25 12:58 28.42618 -81.30287 105 ft 2 kts 25°
2026-04-25 12:58 28.42603 -81.30295 105 ft 2 kts 25°
2026-04-25 12:59 28.42588 -81.30303 106 ft 2 kts 36°
2026-04-25 12:59 28.42575 -81.30315 104 ft 3 kts 63°
2026-04-25 12:59 28.42563 -81.30338 104 ft 3 kts 105°
2026-04-25 12:59 28.42562 -81.30344 107 ft 0 kts 128°
2026-04-25 13:02 28.42552 -81.30326 107 ft 6 kts 123°
2026-04-25 13:03 28.42530 -81.30287 108 ft 5 kts 121°
2026-04-25 13:03 28.42514 -81.30255 108 ft 5 kts 120°
2026-04-25 13:03 28.42498 -81.30221 108 ft 5 kts 118°
2026-04-25 13:03 28.42478 -81.30178 108 ft 6 kts 118°
2026-04-25 13:04 28.42464 -81.30155 108 ft 0 kts 129°
2026-04-25 13:04 28.42456 -81.30149 108 ft 4 kts 140°
2026-04-25 13:04 28.42430 -81.30140 106 ft 3 kts 163°
2026-04-25 13:04 28.42425 -81.30138 106 ft 0 kts 166°
2026-04-25 13:05 28.42424 -81.30139 106 ft 2 kts 167°
2026-04-25 13:06 28.42410 -81.30137 107 ft 2 kts 171°
2026-04-25 13:06 28.42381 -81.30121 106 ft 4 kts 148°
2026-04-25 13:06 28.42374 -81.30110 106 ft 1 kts 129°
2026-04-25 13:06 28.42371 -81.30103 105 ft 4 kts 122°
2026-04-25 13:07 28.42362 -81.30032 106 ft 10 kts 92°
2026-04-25 13:07 28.42361 -81.29955 107 ft 10 kts 89°
2026-04-25 13:07 28.42363 -81.29881 104 ft 9 kts 87°
2026-04-25 13:07 28.42389 -81.29818 105 ft 9 kts 48°
2026-04-25 13:08 28.42440 -81.29796 105 ft 7 kts
2026-04-25 13:08 28.42443 -81.29796 105 ft 0 kts
2026-04-25 13:08 28.42460 -81.29774 105 ft 6 kts 54°
2026-04-25 13:08 28.42480 -81.29728 105 ft 7 kts 56°
2026-04-25 13:09 28.42522 -81.29706 104 ft 7 kts 11°
2026-04-25 13:09 28.42578 -81.29701 105 ft 9 kts
2026-04-25 13:09 28.42610 -81.29701 103 ft 0 kts
2026-04-25 13:10 28.42614 -81.29701 103 ft 3 kts 359°
2026-04-25 13:10 28.42643 -81.29702 102 ft 5 kts 359°
2026-04-25 13:10 28.42684 -81.29703 104 ft 7 kts 358°
2026-04-25 13:11 28.42730 -81.29704 104 ft 6 kts
2026-04-25 13:11 28.42768 -81.29704 104 ft 5 kts
2026-04-25 13:11 28.42802 -81.29704 106 ft 6 kts 359°
2026-04-25 13:11 28.42839 -81.29705 106 ft 5 kts 359°
2026-04-25 13:12 28.42870 -81.29705 106 ft 4 kts 360°
2026-04-25 13:12 28.42897 -81.29705 106 ft 4 kts 359°
2026-04-25 13:12 28.42932 -81.29705 106 ft 7 kts 360°
2026-04-25 13:12 28.42948 -81.29705 106 ft 7 kts 360°
2026-04-25 13:13 28.43044 -81.29706 107 ft 9 kts 359°
2026-04-25 13:13 28.43112 -81.29707 106 ft 10 kts 359°
2026-04-25 13:13 28.43182 -81.29708 107 ft 10 kts 359°
2026-04-25 13:13 28.43245 -81.29709 106 ft 8 kts 359°
2026-04-25 13:14 28.43298 -81.29709 107 ft 6 kts 359°
2026-04-25 13:14 28.43314 -81.29710 107 ft 0 kts 356°
2026-04-25 13:14 28.43318 -81.29712 107 ft 1 kts 351°
2026-04-25 13:14 28.43329 -81.29723 107 ft 3 kts 325°
2026-04-25 13:15 28.43332 -81.29729 107 ft 0 kts 312°
2026-04-25 13:15 28.43355 -81.29733 106 ft 6 kts 356°
2026-04-25 13:16 28.43401 -81.29721 106 ft 7 kts 14°
2026-04-25 13:16 28.43439 -81.29715 105 ft 8 kts
2026-04-25 13:16 28.43458 -81.29713 106 ft 8 kts
2026-04-25 13:16 28.43483 -81.29714 106 ft 1 kts 359°
2026-04-25 13:17 28.43492 -81.29713 105 ft 3 kts
2026-04-25 13:17 28.43516 -81.29709 105 ft 4 kts 12°
2026-04-25 13:17 28.43543 -81.29675 104 ft 5 kts 61°
2026-04-25 13:17 28.43547 -81.29650 105 ft 5 kts 80°
2026-04-25 13:18 28.43543 -81.29616 106 ft 4 kts 108°
2026-04-25 13:18 28.43529 -81.29602 107 ft 2 kts 140°
2026-04-25 13:18 28.43519 -81.29598 105 ft 2 kts 152°
2026-04-25 13:18 28.43508 -81.29594 106 ft 1 kts 159°
2026-04-25 13:19 28.43495 -81.29589 105 ft 2 kts 162°
2026-04-25 13:19 28.43475 -81.29588 106 ft 0 kts 177°
2026-04-25 13:21 28.43381 -81.29587 108 ft 44 kts 178°
2026-04-25 13:21 28.42821 -81.29579 106 ft 116 kts 180°
2026-04-25 13:21 28.41808 -81.29577 109 ft 171 kts 180°
2026-04-25 13:21 28.40520 -81.29570 396 ft 197 kts 180°
2026-04-25 13:22 28.39109 -81.29571 981 ft 210 kts 180°
2026-04-25 13:22 28.37628 -81.29511 1676 ft 213 kts 176°
2026-04-25 13:22 28.36093 -81.29301 1959 ft 236 kts 171°
2026-04-25 13:23 28.33225 -81.27229 2669 ft 263 kts 122°
2026-04-25 13:23 28.32486 -81.25333 3233 ft 266 kts 102°
2026-04-25 13:23 28.32476 -81.23244 3774 ft 267 kts 76°
2026-04-25 13:23 28.33104 -81.21261 4308 ft 269 kts 66°
2026-04-25 13:24 28.33892 -81.19323 4887 ft 271 kts 64°
2026-04-25 13:24 28.34701 -81.17374 5438 ft 273 kts 64°
2026-04-25 13:24 28.35487 -81.15405 5995 ft 275 kts 65°
2026-04-25 13:24 28.36255 -81.13404 6549 ft 277 kts 66°
2026-04-25 13:25 28.37001 -81.11405 7028 ft 281 kts 66°
2026-04-25 13:25 28.37763 -81.09342 7543 ft 284 kts 65°
2026-04-25 13:25 28.38539 -81.07253 8069 ft 287 kts 66°
2026-04-25 13:25 28.39314 -81.05153 8613 ft 290 kts 66°
2026-04-25 13:26 28.40090 -81.03052 9121 ft 293 kts 66°
2026-04-25 13:26 28.40882 -81.00907 9667 ft 296 kts 65°
2026-04-25 13:26 28.41684 -80.98736 10161 ft 300 kts 65°
2026-04-25 13:26 28.42516 -80.96492 10334 ft 316 kts 65°
2026-04-25 13:27 28.43394 -80.94129 10481 ft 332 kts 65°
2026-04-25 13:27 28.44310 -80.91657 10669 ft 346 kts 65°
2026-04-25 13:27 28.45250 -80.89119 11105 ft 350 kts 65°
2026-04-25 13:27 28.46180 -80.86547 11596 ft 353 kts 68°
2026-04-25 13:28 28.46981 -80.83890 12066 ft 356 kts 71°
2026-04-25 13:28 28.47427 -80.82083 12390 ft 359 kts 74°
2026-04-25 13:28 28.48116 -80.78390 13033 ft 363 kts 79°
2026-04-25 13:28 28.48460 -80.75519 13512 ft 367 kts 82°
2026-04-25 13:29 28.48765 -80.72629 13949 ft 370 kts 82°
2026-04-25 13:29 28.49088 -80.69718 14379 ft 372 kts 81°
2026-04-25 13:29 28.49418 -80.66777 14736 ft 376 kts 81°
2026-04-25 13:30 28.50080 -80.60833 15571 ft 381 kts 81°
2026-04-25 13:30 28.50412 -80.57834 15975 ft 384 kts 81°
2026-04-25 13:30 28.50743 -80.54837 16384 ft 387 kts 81°
2026-04-25 13:31 28.51417 -80.48701 17185 ft 394 kts 81°
2026-04-25 13:31 28.51757 -80.45593 17592 ft 397 kts 81°
2026-04-25 13:31 28.52098 -80.42470 17992 ft 400 kts 81°
2026-04-25 13:31 28.52442 -80.39315 18370 ft 403 kts 81°
2026-04-25 13:32 28.52786 -80.36155 18761 ft 405 kts 81°
2026-04-25 13:32 28.53179 -80.32980 19142 ft 406 kts 77°
2026-04-25 13:32 28.53778 -80.29839 19535 ft 406 kts 73°
2026-04-25 13:32 28.54585 -80.26751 19916 ft 407 kts 69°
2026-04-25 13:33 28.55586 -80.23739 20307 ft 408 kts 64°
2026-04-25 13:33 28.56715 -80.20813 20692 ft 409 kts 64°
2026-04-25 13:33 28.57855 -80.17837 21095 ft 411 kts 64°
2026-04-25 13:33 28.58624 -80.15813 21372 ft 413 kts 64°
2026-04-25 13:34 28.60131 -80.11829 21891 ft 415 kts 64°
2026-04-25 13:34 28.61273 -80.08806 22296 ft 417 kts 64°
2026-04-25 13:34 28.62423 -80.05762 22706 ft 419 kts 64°
2026-04-25 13:34 28.63578 -80.02706 23103 ft 421 kts 64°
2026-04-25 13:35 28.64739 -79.99631 23504 ft 423 kts 64°
2026-04-25 13:35 28.65902 -79.96548 23861 ft 425 kts 65°
2026-04-25 13:35 28.67069 -79.93451 24222 ft 426 kts 65°
2026-04-25 13:35 28.68239 -79.90345 24571 ft 427 kts 65°
2026-04-25 13:36 28.69412 -79.87230 24916 ft 429 kts 65°
2026-04-25 13:36 28.70577 -79.84130 25256 ft 431 kts 65°
2026-04-25 13:36 28.71760 -79.80983 25596 ft 432 kts 65°
2026-04-25 13:36 28.72945 -79.77825 25930 ft 434 kts 65°
2026-04-25 13:37 28.74135 -79.74652 26270 ft 435 kts 65°
2026-04-25 13:37 28.75327 -79.71470 26594 ft 437 kts 65°
2026-04-25 13:37 28.76524 -79.68274 26934 ft 439 kts 65°
2026-04-25 13:37 28.77727 -79.65058 27254 ft 440 kts 65°
2026-04-25 13:38 28.78929 -79.61841 27577 ft 442 kts 65°
2026-04-25 13:38 28.80163 -79.58627 27885 ft 443 kts 63°
2026-04-25 13:38 28.81609 -79.55524 28186 ft 444 kts 58°
2026-04-25 13:38 28.83283 -79.52567 28487 ft 444 kts 53°
2026-04-25 13:39 28.85105 -79.49712 28765 ft 446 kts 52°
2026-04-25 13:39 28.86898 -79.46879 29061 ft 447 kts 53°
2026-04-25 13:39 28.88719 -79.43981 29368 ft 449 kts 53°
2026-04-25 13:39 28.90542 -79.41072 29643 ft 451 kts 53°
2026-04-25 13:40 28.92366 -79.38160 29924 ft 452 kts 53°
2026-04-25 13:40 28.94203 -79.35229 30196 ft 454 kts 53°
2026-04-25 13:40 28.96046 -79.32285 30425 ft 456 kts 53°
2026-04-25 13:40 28.97896 -79.29330 30672 ft 458 kts 53°
2026-04-25 13:41 28.99758 -79.26354 30911 ft 460 kts 53°
2026-04-25 13:41 29.01625 -79.23368 31146 ft 462 kts 53°
2026-04-25 13:41 29.03475 -79.20406 31381 ft 464 kts 53°
2026-04-25 13:41 29.05357 -79.17393 31619 ft 466 kts 53°
2026-04-25 13:42 29.07245 -79.14366 31851 ft 468 kts 53°
2026-04-25 13:42 29.09140 -79.11326 32079 ft 470 kts 53°
2026-04-25 13:42 29.11040 -79.08276 32286 ft 472 kts 53°
2026-04-25 13:42 29.12950 -79.05208 32504 ft 473 kts 53°
2026-04-25 13:43 29.14866 -79.02128 32685 ft 475 kts 53°
2026-04-25 13:43 29.16763 -78.99076 32863 ft 477 kts 53°
2026-04-25 13:43 29.18687 -78.95979 33002 ft 478 kts 53°
2026-04-25 13:43 29.20615 -78.92872 33153 ft 479 kts 53°
2026-04-25 13:44 29.22549 -78.89753 33287 ft 481 kts 53°
2026-04-25 13:44 29.24487 -78.86626 33414 ft 482 kts 53°
2026-04-25 13:44 29.26428 -78.83491 33537 ft 482 kts 53°
2026-04-25 13:44 29.28371 -78.80351 33702 ft 482 kts 53°
2026-04-25 13:45 29.30311 -78.77212 33846 ft 482 kts 53°
2026-04-25 13:45 29.32249 -78.74076 34001 ft 482 kts 53°
2026-04-25 13:45 29.34183 -78.70942 34149 ft 481 kts 53°
2026-04-25 13:45 29.36116 -78.67811 34288 ft 481 kts 53°
2026-04-25 13:46 29.38100 -78.64728 34415 ft 479 kts 47°
2026-04-25 13:46 29.40385 -78.61949 34554 ft 477 kts 43°
2026-04-25 13:46 29.42551 -78.59059 34654 ft 480 kts 54°
2026-04-25 13:46 29.44202 -78.55733 34773 ft 482 kts 65°
2026-04-25 13:47 29.45259 -78.52130 34896 ft 484 kts 76°
2026-04-25 13:47 29.45704 -78.48290 35005 ft 486 kts 87°
2026-04-25 13:47 29.45571 -78.44414 35125 ft 487 kts 93°
2026-04-25 13:48 29.45400 -78.36654 35338 ft 486 kts 86°
2026-04-25 13:48 29.45635 -78.32782 35451 ft 485 kts 83°
2026-04-25 13:48 29.45990 -78.28941 35553 ft 485 kts 82°
2026-04-25 13:48 29.46401 -78.25086 35675 ft 485 kts 81°
2026-04-25 13:49 29.46825 -78.21255 35798 ft 484 kts 81°
2026-04-25 13:49 29.47248 -78.17425 35917 ft 484 kts 81°
2026-04-25 13:49 29.47663 -78.13630 36024 ft 484 kts 81°
2026-04-25 13:49 29.48078 -78.09793 36131 ft 484 kts 81°
2026-04-25 13:50 29.48491 -78.05953 36236 ft 484 kts 81°
2026-04-25 13:50 29.48902 -78.02109 36354 ft 484 kts 81°
2026-04-25 13:50 29.49310 -77.98276 36459 ft 484 kts 81°
2026-04-25 13:50 29.49717 -77.94448 36567 ft 484 kts 81°
2026-04-25 13:51 29.50124 -77.90605 36666 ft 484 kts 81°
2026-04-25 13:51 29.50529 -77.86765 36768 ft 484 kts 81°
2026-04-25 13:51 29.50929 -77.82975 36867 ft 483 kts 81°
2026-04-25 13:52 29.51734 -77.75305 37064 ft 483 kts 81°
2026-04-25 13:52 29.52535 -77.67631 37242 ft 483 kts 81°
2026-04-25 13:53 29.53326 -77.60012 37417 ft 483 kts 81°
2026-04-25 13:53 29.54117 -77.52348 37598 ft 483 kts 81°
2026-04-25 13:54 29.54905 -77.44676 37766 ft 484 kts 81°
2026-04-25 13:54 29.55689 -77.36990 37939 ft 483 kts 81°
2026-04-25 13:55 29.56469 -77.29310 38004 ft 483 kts 82°
2026-04-25 13:55 29.57238 -77.21681 38007 ft 483 kts 82°
2026-04-25 13:56 29.58009 -77.13992 38003 ft 483 kts 82°
2026-04-25 13:56 29.58775 -77.06311 38005 ft 483 kts 82°
2026-04-25 13:57 29.59532 -76.98677 38009 ft 483 kts 82°
2026-04-25 13:57 29.60289 -76.90991 38008 ft 483 kts 82°
2026-04-25 13:58 29.60834 -76.83287 38006 ft 484 kts 88°
2026-04-25 13:58 29.60990 -76.75561 38006 ft 484 kts 87°
2026-04-25 13:59 29.61186 -76.67830 38008 ft 484 kts 87°
2026-04-25 13:59 29.61390 -76.60092 38009 ft 484 kts 87°
2026-04-25 14:00 29.61589 -76.52399 38008 ft 484 kts 87°
2026-04-25 14:00 29.61783 -76.44658 38011 ft 483 kts 88°
2026-04-25 14:01 29.61973 -76.36924 38016 ft 483 kts 88°
2026-04-25 14:01 29.62158 -76.29198 38015 ft 483 kts 88°
2026-04-25 14:02 29.62338 -76.21531 38022 ft 483 kts 88°
2026-04-25 14:02 29.62514 -76.13819 38020 ft 482 kts 88°
2026-04-25 14:03 29.62685 -76.06115 38025 ft 482 kts 88°
2026-04-25 14:03 29.62824 -75.99705 38023 ft 481 kts 88°
2026-04-25 14:04 29.62985 -75.92002 38026 ft 481 kts 88°
2026-04-25 14:04 29.63138 -75.84372 38028 ft 480 kts 88°
2026-04-25 14:05 29.63287 -75.76692 38024 ft 480 kts 89°
2026-04-25 14:05 29.63431 -75.69020 38023 ft 479 kts 89°
2026-04-25 14:06 29.63571 -75.61368 38026 ft 479 kts 89°
2026-04-25 14:06 29.63706 -75.53714 38025 ft 478 kts 89°
2026-04-25 14:07 29.63837 -75.46074 38019 ft 478 kts 89°
2026-04-25 14:07 29.63963 -75.38435 38021 ft 477 kts 89°
2026-04-25 14:08 29.64084 -75.30805 38025 ft 477 kts 89°
2026-04-25 14:08 29.64202 -75.23181 38024 ft 477 kts 89°
2026-04-25 14:09 29.64314 -75.15614 38021 ft 476 kts 89°
2026-04-25 14:09 29.64422 -75.07985 38023 ft 476 kts 89°
2026-04-25 14:10 29.64526 -75.00386 38021 ft 476 kts 89°
2026-04-25 14:10 29.64626 -74.92785 38022 ft 475 kts 89°
2026-04-25 14:11 29.64721 -74.85185 38018 ft 475 kts 89°
2026-04-25 14:11 29.64812 -74.77591 38019 ft 475 kts 90°
2026-04-25 14:12 29.64898 -74.70043 38016 ft 474 kts 90°
2026-04-25 14:12 29.64980 -74.62447 38028 ft 474 kts 90°
2026-04-25 14:13 29.65057 -74.54864 38024 ft 474 kts 90°
2026-04-25 14:13 29.65131 -74.47285 38029 ft 474 kts 90°
2026-04-25 14:14 29.65200 -74.39698 38022 ft 474 kts 90°
2026-04-25 14:14 29.65265 -74.32120 38031 ft 474 kts 90°
2026-04-25 14:15 29.65325 -74.24580 38024 ft 474 kts 90°
2026-04-25 14:15 29.65381 -74.16972 38030 ft 474 kts 90°
2026-04-25 14:16 29.65433 -74.09372 38034 ft 474 kts 90°
2026-04-25 14:16 29.65480 -74.01829 38033 ft 475 kts 90°
2026-04-25 14:17 29.65524 -73.94244 38030 ft 475 kts 90°
2026-04-25 14:17 29.65563 -73.86638 38029 ft 475 kts 90°
2026-04-25 14:18 29.65597 -73.79041 38033 ft 475 kts 90°
2026-04-25 14:18 29.65627 -73.71477 38027 ft 475 kts 90°
2026-04-25 14:19 29.65653 -73.63863 38028 ft 476 kts 90°
2026-04-25 14:19 29.65675 -73.56259 38030 ft 476 kts 90°
2026-04-25 14:20 29.65693 -73.48643 38031 ft 476 kts 90°
2026-04-25 14:20 29.65705 -73.41060 38031 ft 476 kts 90°
2026-04-25 14:21 29.65714 -73.33444 38032 ft 477 kts 90°
2026-04-25 14:21 29.65719 -73.25804 38035 ft 477 kts 90°
2026-04-25 14:22 29.65719 -73.18175 38030 ft 477 kts 91°
2026-04-25 14:22 29.65714 -73.10541 38032 ft 477 kts 91°
2026-04-25 14:23 29.65705 -73.02944 38043 ft 478 kts 91°
2026-04-25 14:23 29.65692 -72.95293 38029 ft 478 kts 91°
2026-04-25 14:24 29.65675 -72.87643 38029 ft 478 kts 91°
2026-04-25 14:24 29.65653 -72.79997 38048 ft 479 kts 91°
2026-04-25 14:25 29.65626 -72.72341 38036 ft 479 kts 91°
2026-04-25 14:25 29.65596 -72.64676 38046 ft 479 kts 91°
2026-04-25 14:26 29.65560 -72.57015 38042 ft 479 kts 91°
2026-04-25 14:26 29.65521 -72.49350 38042 ft 480 kts 91°
2026-04-25 14:27 29.65477 -72.41706 38034 ft 480 kts 91°
2026-04-25 14:27 29.65428 -72.34034 38038 ft 480 kts 91°
2026-04-25 14:28 29.65375 -72.26350 38049 ft 480 kts 91°
2026-04-25 14:28 29.65318 -72.18651 38038 ft 481 kts 91°
2026-04-25 14:29 29.65256 -72.11009 38036 ft 481 kts 91°
2026-04-25 14:29 29.65190 -72.03309 38041 ft 481 kts 91°
2026-04-25 14:30 29.65119 -71.95613 38048 ft 481 kts 91°
2026-04-25 14:30 29.65004 -71.84054 38045 ft 482 kts 91°
2026-04-25 14:31 29.64922 -71.76349 38033 ft 482 kts 91°
2026-04-25 14:31 29.64837 -71.68689 38039 ft 482 kts 91°
2026-04-25 14:32 29.64746 -71.60971 38040 ft 482 kts 91°
2026-04-25 14:32 29.64650 -71.53259 38047 ft 482 kts 91°
2026-04-25 14:33 29.64550 -71.45529 38036 ft 483 kts 91°
2026-04-25 14:33 29.64446 -71.37857 38051 ft 483 kts 91°
2026-04-25 14:34 29.64337 -71.30134 38047 ft 483 kts 91°
2026-04-25 14:34 29.64223 -71.22406 38049 ft 483 kts 91°
2026-04-25 14:35 29.64105 -71.14678 38041 ft 483 kts 91°
2026-04-25 14:35 29.63983 -71.06946 38042 ft 484 kts 91°
2026-04-25 14:36 29.63855 -70.99203 38044 ft 484 kts 91°
2026-04-25 14:36 29.63725 -70.91504 38042 ft 484 kts 91°
2026-04-25 14:37 29.63588 -70.83770 38040 ft 485 kts 91°
2026-04-25 14:37 29.63448 -70.76023 38037 ft 485 kts 92°
2026-04-25 14:38 29.63302 -70.68261 38042 ft 485 kts 92°
2026-04-25 14:38 29.63152 -70.60509 38041 ft 485 kts 92°
2026-04-25 14:39 29.62997 -70.52754 38052 ft 485 kts 92°
2026-04-25 14:39 29.62839 -70.45043 38059 ft 485 kts 92°
2026-04-25 14:40 29.62676 -70.37282 38058 ft 486 kts 92°
2026-04-25 14:40 29.62508 -70.29519 38058 ft 486 kts 92°
2026-04-25 14:41 29.62335 -70.21749 38053 ft 486 kts 92°
2026-04-25 14:41 29.62157 -70.13965 38035 ft 487 kts 92°
2026-04-25 14:42 29.62036 -70.08761 38047 ft 487 kts 92°
2026-04-25 14:42 29.61788 -69.98389 38041 ft 488 kts 92°
2026-04-25 14:43 29.61596 -69.90599 38035 ft 488 kts 92°
2026-04-25 14:43 29.61400 -69.82809 38048 ft 488 kts 92°
2026-04-25 14:44 29.61200 -69.75055 38047 ft 488 kts 92°
2026-04-25 14:44 29.60994 -69.67234 38058 ft 489 kts 92°
2026-04-25 14:45 29.60783 -69.59425 38057 ft 489 kts 92°
2026-04-25 14:45 29.60568 -69.51604 38061 ft 489 kts 92°
2026-04-25 14:46 29.60348 -69.43782 38065 ft 490 kts 92°
2026-04-25 14:46 29.60124 -69.35947 38061 ft 490 kts 92°
2026-04-25 14:47 29.59972 -69.30756 38044 ft 491 kts 92°
2026-04-25 14:47 29.59661 -69.20324 38054 ft 492 kts 92°
2026-04-25 14:48 29.59422 -69.12456 38038 ft 492 kts 92°
2026-04-25 14:48 29.59178 -69.04595 38038 ft 493 kts 92°
2026-04-25 14:49 29.58930 -68.96771 38043 ft 493 kts 92°
2026-04-25 14:49 29.58677 -68.88891 38045 ft 494 kts 92°
2026-04-25 14:50 29.58417 -68.80999 38055 ft 494 kts 92°
2026-04-25 14:50 29.58199 -68.74432 38036 ft 495 kts 92°
2026-04-25 14:51 29.57930 -68.66518 38043 ft 495 kts 93°
2026-04-25 14:51 29.57657 -68.58607 38047 ft 496 kts 93°
2026-04-25 14:52 29.57379 -68.50674 38058 ft 497 kts 93°
2026-04-25 14:52 29.57144 -68.44079 38055 ft 497 kts 93°
2026-04-25 14:53 29.56807 -68.34792 38053 ft 498 kts 93°
2026-04-25 14:53 29.56516 -68.26889 38055 ft 499 kts 93°
2026-04-25 14:54 29.56218 -68.18929 38052 ft 499 kts 93°
2026-04-25 14:54 29.55914 -68.10946 38053 ft 500 kts 93°
2026-04-25 14:55 29.55605 -68.02963 38057 ft 500 kts 93°
2026-04-25 14:55 29.55291 -67.94968 38058 ft 501 kts 94°
2026-04-25 14:56 29.54972 -67.86963 38057 ft 502 kts 94°
2026-04-25 14:56 29.54647 -67.78934 38055 ft 502 kts 94°
2026-04-25 14:57 29.54319 -67.70959 38058 ft 503 kts 94°
2026-04-25 14:57 29.53984 -67.62926 38054 ft 504 kts 94°
2026-04-25 14:58 29.53643 -67.54872 38055 ft 504 kts 94°
2026-04-25 14:58 29.53298 -67.46818 38052 ft 505 kts 94°
2026-04-25 14:59 29.52948 -67.38787 38058 ft 506 kts 94°
2026-04-25 14:59 29.52592 -67.30712 38057 ft 507 kts 94°
2026-04-25 15:00 29.52231 -67.22626 38053 ft 507 kts 94°
2026-04-25 15:00 29.51864 -67.14541 38057 ft 508 kts 94°
2026-04-25 15:01 29.51491 -67.06428 38058 ft 509 kts 95°
2026-04-25 15:01 29.51113 -66.98309 38061 ft 509 kts 95°
2026-04-25 15:02 29.50730 -66.90184 38059 ft 510 kts 95°
2026-04-25 15:02 29.50344 -66.82101 38058 ft 510 kts 95°
2026-04-25 15:03 29.49951 -66.73958 38059 ft 510 kts 95°
2026-04-25 15:03 29.49551 -66.65818 38058 ft 510 kts 95°
2026-04-25 15:04 29.49148 -66.57687 38056 ft 510 kts 95°
2026-04-25 15:04 29.48742 -66.49592 38058 ft 511 kts 95°
2026-04-25 15:05 29.48328 -66.41452 38060 ft 511 kts 95°
2026-04-25 15:06 29.47698 -66.29252 38064 ft 510 kts 95°
2026-04-25 15:06 29.47271 -66.21094 38058 ft 510 kts 95°
2026-04-25 15:07 29.46841 -66.12959 38054 ft 510 kts 95°
2026-04-25 15:07 29.46405 -66.04835 38057 ft 510 kts 95°
2026-04-25 15:08 29.45968 -65.96758 38057 ft 510 kts 95°
2026-04-25 15:08 29.45522 -65.88635 38056 ft 510 kts 95°
2026-04-25 15:09 29.45072 -65.80515 38056 ft 510 kts 95°
2026-04-25 15:09 29.44388 -65.68331 38058 ft 509 kts 96°
2026-04-25 15:10 29.43926 -65.60217 38051 ft 509 kts 96°
2026-04-25 15:11 29.43224 -65.48049 38051 ft 510 kts 96°
2026-04-25 15:11 29.42753 -65.39990 38048 ft 510 kts 96°
2026-04-25 15:12 29.42031 -65.27814 38047 ft 510 kts 96°
2026-04-25 15:12 29.41706 -65.22384 38048 ft 510 kts 96°
2026-04-25 15:13 29.40803 -65.07494 38042 ft 511 kts 97°
2026-04-25 15:14 29.40302 -64.99353 38041 ft 512 kts 97°
2026-04-25 15:14 29.39795 -64.91204 38044 ft 513 kts 97°
2026-04-25 15:15 29.39283 -64.83035 38037 ft 514 kts 97°
2026-04-25 15:15 29.38764 -64.74851 38034 ft 515 kts 97°
2026-04-25 15:16 29.38239 -64.66648 38039 ft 516 kts 97°
2026-04-25 15:16 29.37445 -64.54369 38041 ft 519 kts 98°
2026-04-25 15:17 29.36630 -64.41951 38029 ft 521 kts 98°
2026-04-25 15:18 29.36078 -64.33640 38034 ft 523 kts 98°
2026-04-25 15:18 29.35239 -64.21153 38031 ft 527 kts 99°
2026-04-25 15:19 29.34858 -64.15538 38038 ft 528 kts 99°
2026-04-25 15:19 29.34090 -64.04336 38041 ft 531 kts 99°
2026-04-25 15:20 29.33504 -63.95865 38042 ft 533 kts 100°
2026-04-25 15:20 29.32910 -63.87378 38039 ft 535 kts 100°
2026-04-25 15:21 29.32309 -63.78854 38042 ft 537 kts 101°
2026-04-25 15:21 29.31703 -63.70354 38049 ft 539 kts 101°
2026-04-25 15:22 29.31087 -63.61774 38043 ft 541 kts 101°
2026-04-25 15:22 29.30463 -63.53163 38045 ft 543 kts 101°
2026-04-25 15:23 29.29831 -63.44524 38051 ft 544 kts 102°
2026-04-25 15:23 29.29192 -63.35871 38049 ft 545 kts 102°
2026-04-25 15:24 29.28547 -63.27209 38049 ft 547 kts 102°
2026-04-25 15:24 29.28115 -63.21451 38047 ft 547 kts 102°
2026-04-25 15:25 29.27238 -63.09866 38049 ft 548 kts 103°
2026-04-25 15:25 29.26572 -63.01155 38039 ft 548 kts 103°
2026-04-25 15:26 29.25903 -62.92470 38038 ft 548 kts 103°
2026-04-25 15:26 29.25225 -62.83772 38039 ft 549 kts 103°
2026-04-25 15:27 29.24541 -62.75059 38040 ft 549 kts 103°
2026-04-25 15:28 29.23507 -62.62018 38040 ft 551 kts 103°
2026-04-25 15:28 29.22806 -62.53268 38043 ft 552 kts 103°
2026-04-25 15:29 29.22098 -62.44496 38045 ft 552 kts 103°
2026-04-25 15:29 29.21385 -62.35734 38046 ft 553 kts 103°
2026-04-25 15:30 29.20666 -62.26972 38043 ft 553 kts 103°
2026-04-25 15:30 29.19946 -62.18267 38042 ft 553 kts 103°
2026-04-25 15:31 29.19213 -62.09498 38048 ft 554 kts 103°
2026-04-25 15:31 29.18475 -62.00725 38048 ft 554 kts 103°
2026-04-25 15:32 29.17730 -61.91947 38047 ft 554 kts 103°
2026-04-25 15:32 29.16980 -61.83172 38044 ft 554 kts 103°
2026-04-25 15:33 29.15846 -61.70048 38040 ft 554 kts 103°
2026-04-25 15:33 29.15081 -61.61265 38040 ft 555 kts 103°
2026-04-25 15:34 29.14309 -61.52469 38038 ft 555 kts 103°
2026-04-25 15:34 29.13794 -61.46642 38036 ft 555 kts 103°
2026-04-25 15:35 29.12352 -61.30474 38036 ft 556 kts 103°
2026-04-25 15:36 29.11166 -61.17339 38037 ft 556 kts 103°
2026-04-25 15:36 29.10364 -61.08531 38038 ft 556 kts 103°
2026-04-25 15:37 29.09554 -60.99711 38038 ft 557 kts 103°
2026-04-25 15:37 29.08878 -60.92392 38035 ft 557 kts 103°
2026-04-25 15:38 29.08058 -60.83577 38031 ft 557 kts 103°
2026-04-25 15:38 29.07235 -60.74763 38033 ft 558 kts 103°
2026-04-25 15:39 29.06407 -60.65938 38037 ft 558 kts 103°
2026-04-25 15:39 29.05574 -60.57107 38034 ft 558 kts 103°
2026-04-25 15:40 29.04878 -60.49768 38033 ft 558 kts 103°
2026-04-25 15:40 29.03896 -60.39492 38036 ft 558 kts 103°
2026-04-25 15:41 29.03044 -60.30655 38036 ft 559 kts 103°
2026-04-25 15:41 29.02189 -60.21832 38036 ft 559 kts 103°
2026-04-25 15:42 29.01327 -60.13006 38041 ft 559 kts 103°
2026-04-25 15:42 29.00465 -60.04239 38036 ft 559 kts 103°
2026-04-25 15:43 28.99753 -59.95381 38046 ft 564 kts 96°
2026-04-25 15:43 28.99981 -59.86374 38036 ft 567 kts 92°
2026-04-25 15:44 29.00210 -59.77367 38032 ft 566 kts 94°
2026-04-25 15:44 29.00318 -59.68374 38029 ft 565 kts 95°
2026-04-25 15:45 29.00391 -59.59448 38034 ft 565 kts 95°
2026-04-25 15:45 29.00448 -59.51917 38022 ft 565 kts 95°
2026-04-25 15:46 29.00522 -59.41482 38034 ft 565 kts 95°
2026-04-25 15:46 29.00580 -59.32496 38031 ft 565 kts 95°
2026-04-25 15:47 29.00632 -59.23515 38030 ft 565 kts 95°
2026-04-25 15:47 29.00678 -59.14530 38025 ft 565 kts 95°
2026-04-25 15:48 29.00717 -59.05621 38019 ft 565 kts 95°
2026-04-25 15:48 29.00751 -58.96641 38032 ft 565 kts 95°
2026-04-25 15:49 29.00779 -58.87657 38014 ft 565 kts 95°
2026-04-25 15:49 29.00801 -58.78664 38013 ft 565 kts 95°
2026-04-25 15:50 29.00817 -58.69694 38006 ft 565 kts 95°
2026-04-25 15:50 29.00828 -58.60771 38022 ft 565 kts 95°
2026-04-25 15:51 29.00832 -58.53248 38019 ft 565 kts 95°
2026-04-25 15:51 29.00830 -58.42805 38020 ft 565 kts 95°
2026-04-25 15:52 29.00822 -58.33826 38019 ft 565 kts 95°
2026-04-25 15:52 29.00809 -58.24848 38007 ft 565 kts 95°
2026-04-25 15:53 29.00789 -58.15852 38024 ft 566 kts 95°
2026-04-25 15:53 29.00763 -58.06916 38006 ft 566 kts 95°
2026-04-25 15:54 29.00732 -57.97922 38009 ft 566 kts 95°
2026-04-25 15:54 29.00694 -57.88923 38014 ft 566 kts 95°
2026-04-25 15:55 29.00651 -57.79922 38027 ft 567 kts 95°
2026-04-25 15:55 29.00601 -57.70906 38019 ft 567 kts 95°
2026-04-25 15:56 29.00545 -57.61940 38009 ft 567 kts 95°
2026-04-25 15:56 29.00484 -57.52926 38021 ft 568 kts 95°
2026-04-25 15:57 29.00416 -57.43902 38017 ft 568 kts 95°
2026-04-25 15:57 29.00342 -57.34870 38010 ft 568 kts 95°
2026-04-25 15:58 29.00262 -57.25841 38017 ft 568 kts 95°
2026-04-25 15:58 29.00176 -57.16807 38020 ft 568 kts 95°
2026-04-25 15:59 29.00085 -57.07823 38020 ft 569 kts 95°
2026-04-25 15:59 28.99992 -56.98769 38021 ft 569 kts 94°
2026-04-25 16:00 29.00075 -56.92763 38002 ft 571 kts 91°
2026-04-25 16:00 29.00455 -56.80667 38014 ft 572 kts 91°
2026-04-25 16:01 29.00698 -56.71588 38018 ft 571 kts 91°
2026-04-25 16:01 29.00918 -56.62512 38013 ft 572 kts 91°
2026-04-25 16:02 29.01128 -56.53424 38010 ft 571 kts 91°
2026-04-25 16:02 29.01329 -56.44396 38011 ft 571 kts 91°
2026-04-25 16:03 29.01523 -56.35325 37998 ft 571 kts 91°
2026-04-25 16:03 29.01712 -56.26248 38000 ft 571 kts 91°
2026-04-25 16:04 29.01895 -56.17175 38000 ft 571 kts 91°
2026-04-25 16:04 29.02072 -56.08102 38003 ft 570 kts 91°
2026-04-25 16:05 29.02241 -55.99098 37998 ft 571 kts 91°
2026-04-25 16:06 29.02486 -55.85464 38007 ft 571 kts 91°
2026-04-25 16:06 29.02640 -55.76451 38007 ft 571 kts 91°
2026-04-25 16:07 29.02789 -55.67363 37997 ft 571 kts 91°
2026-04-25 16:07 29.02932 -55.58277 37996 ft 571 kts 91°
2026-04-25 16:08 29.03069 -55.49202 38005 ft 571 kts 91°
2026-04-25 16:08 29.03200 -55.40120 38009 ft 571 kts 91°
2026-04-25 16:09 29.03325 -55.31042 37997 ft 571 kts 91°
2026-04-25 16:09 29.03443 -55.22014 38005 ft 571 kts 91°
2026-04-25 16:10 29.03556 -55.12927 38003 ft 571 kts 91°
2026-04-25 16:10 29.03663 -55.03826 38008 ft 571 kts 91°
2026-04-25 16:11 29.03763 -54.94748 38014 ft 571 kts 91°
2026-04-25 16:11 29.03857 -54.85730 38012 ft 571 kts 91°
2026-04-25 16:12 29.03946 -54.76633 37998 ft 571 kts 91°
2026-04-25 16:12 29.04028 -54.67551 38001 ft 571 kts 91°
2026-04-25 16:13 29.04104 -54.58469 38008 ft 571 kts 91°
2026-04-25 16:13 29.04174 -54.49372 37997 ft 571 kts 91°
2026-04-25 16:14 29.04237 -54.40341 38019 ft 571 kts 91°
2026-04-25 16:14 29.04295 -54.31262 38010 ft 571 kts 91°
2026-04-25 16:15 29.04347 -54.22186 38016 ft 571 kts 91°
2026-04-25 16:15 29.04392 -54.13084 37994 ft 571 kts 91°
2026-04-25 16:16 29.04432 -54.04001 38010 ft 571 kts 91°
2026-04-25 16:16 29.04465 -53.94928 37992 ft 571 kts 91°
2026-04-25 16:17 29.04492 -53.85902 38012 ft 571 kts 91°
2026-04-25 16:17 29.04513 -53.76825 38004 ft 571 kts 91°
2026-04-25 16:18 29.04531 -53.67758 37985 ft 570 kts 92°
2026-04-25 16:18 29.04537 -53.58665 38003 ft 573 kts 92°
2026-04-25 16:19 29.04540 -53.49541 38003 ft 573 kts 92°
2026-04-25 16:19 29.04536 -53.40426 38000 ft 573 kts 92°
2026-04-25 16:20 29.04520 -53.26753 37996 ft 573 kts 92°
2026-04-25 16:21 29.04489 -53.13124 37997 ft 573 kts 92°
2026-04-25 16:21 29.04461 -53.03994 37999 ft 574 kts 92°
2026-04-25 16:22 29.04427 -52.94883 38006 ft 574 kts 92°
2026-04-25 16:22 29.04387 -52.85745 38000 ft 574 kts 92°
2026-04-25 16:23 29.04340 -52.76622 37999 ft 574 kts 92°
2026-04-25 16:23 29.04287 -52.67497 38001 ft 574 kts 92°
2026-04-25 16:24 29.04229 -52.58439 38004 ft 574 kts 92°
2026-04-25 16:24 29.04164 -52.49309 38003 ft 574 kts 92°
2026-04-25 16:25 29.04093 -52.40177 38002 ft 574 kts 92°
2026-04-25 16:25 29.04029 -52.32596 38000 ft 574 kts 92°
2026-04-25 16:26 29.03932 -52.21971 38001 ft 574 kts 92°
2026-04-25 16:26 29.03858 -52.14320 37996 ft 574 kts 92°
2026-04-25 16:27 29.03763 -52.05250 37995 ft 575 kts 92°
2026-04-25 16:27 29.03662 -51.96108 37996 ft 575 kts 92°
2026-04-25 16:28 29.03555 -51.86968 37998 ft 575 kts 92°
2026-04-25 16:28 29.03441 -51.77830 37997 ft 575 kts 92°
2026-04-25 16:29 29.03322 -51.68735 37995 ft 575 kts 92°
2026-04-25 16:29 29.03196 -51.59588 38002 ft 575 kts 92°
2026-04-25 16:30 29.03064 -51.50431 38000 ft 576 kts 92°
2026-04-25 16:30 29.02926 -51.41286 38002 ft 576 kts 92°
2026-04-25 16:31 29.02781 -51.32127 38004 ft 576 kts 92°
2026-04-25 16:31 29.02630 -51.22973 38005 ft 576 kts 92°
2026-04-25 16:32 29.02474 -51.13867 38004 ft 576 kts 92°
2026-04-25 16:32 29.02310 -51.04693 38003 ft 576 kts 92°
2026-04-25 16:33 29.02140 -50.95520 38006 ft 577 kts 92°
2026-04-25 16:33 29.01965 -50.86404 38005 ft 577 kts 92°
2026-04-25 16:34 29.01783 -50.77235 38006 ft 577 kts 93°
2026-04-25 16:34 29.01594 -50.68055 38007 ft 577 kts 93°
2026-04-25 16:35 29.01400 -50.58886 38003 ft 577 kts 93°
2026-04-25 16:35 29.01199 -50.49712 38001 ft 578 kts 93°
2026-04-25 16:36 29.00991 -50.40524 38003 ft 578 kts 93°
2026-04-25 16:36 29.00778 -50.31350 38002 ft 578 kts 93°
2026-04-25 16:37 29.00562 -50.22218 38011 ft 578 kts 93°
2026-04-25 16:37 29.00341 -50.13024 38010 ft 578 kts 93°
2026-04-25 16:38 29.00115 -50.03836 38011 ft 578 kts 93°
2026-04-25 16:38 28.99978 -49.94654 38012 ft 579 kts 90°
2026-04-25 16:39 29.00198 -49.85434 38012 ft 579 kts 89°
2026-04-25 16:39 29.00407 -49.76297 38011 ft 579 kts 89°
2026-04-25 16:40 29.00571 -49.67103 38010 ft 579 kts 89°
2026-04-25 16:40 29.00717 -49.57893 38010 ft 579 kts 89°
2026-04-25 16:41 29.00854 -49.48686 38014 ft 579 kts 89°
2026-04-25 16:41 29.01049 -49.34955 38015 ft 578 kts 89°
2026-04-25 16:42 29.01172 -49.25769 38017 ft 578 kts 89°
2026-04-25 16:42 29.01288 -49.16580 38016 ft 578 kts 89°
2026-04-25 16:43 29.01399 -49.07382 38019 ft 578 kts 90°
2026-04-25 16:43 29.01503 -48.98192 38020 ft 578 kts 89°
2026-04-25 16:44 29.01600 -48.89067 38018 ft 577 kts 89°
2026-04-25 16:44 29.01691 -48.79894 38021 ft 577 kts 90°
2026-04-25 16:45 29.01776 -48.70723 38024 ft 577 kts 90°
2026-04-25 16:45 29.01855 -48.61546 38020 ft 577 kts 90°
2026-04-25 16:46 29.01928 -48.52370 38021 ft 577 kts 90°
2026-04-25 16:46 29.01972 -48.46291 38021 ft 577 kts 90°
2026-04-25 16:47 29.02054 -48.34080 38025 ft 577 kts 90°
2026-04-25 16:47 29.02108 -48.24900 38025 ft 577 kts 90°
2026-04-25 16:48 29.02156 -48.15729 38025 ft 577 kts 90°
2026-04-25 16:48 29.02197 -48.06545 38023 ft 577 kts 90°
2026-04-25 16:49 29.02232 -47.97374 38027 ft 577 kts 90°
2026-04-25 16:49 29.02261 -47.88261 38030 ft 577 kts 90°
2026-04-25 16:50 29.02284 -47.79077 38032 ft 577 kts 90°
2026-04-25 16:50 29.02301 -47.69902 38030 ft 577 kts 90°
2026-04-25 16:51 29.02311 -47.60728 38032 ft 577 kts 90°
2026-04-25 16:51 29.02315 -47.54641 38033 ft 577 kts 90°
2026-04-25 16:52 29.02313 -47.42412 38036 ft 577 kts 90°
2026-04-25 16:52 29.02305 -47.33244 38037 ft 577 kts 90°
2026-04-25 16:53 29.02281 -47.19476 38039 ft 577 kts 90°
2026-04-25 16:54 29.02257 -47.10310 38040 ft 577 kts 90°
2026-04-25 16:54 29.02227 -47.01113 38043 ft 577 kts 90°
2026-04-25 16:55 29.02191 -46.91934 38056 ft 577 kts 90°
2026-04-25 16:55 29.02149 -46.82818 38055 ft 577 kts 90°
2026-04-25 16:56 29.02100 -46.73652 38060 ft 577 kts 90°
2026-04-25 16:56 29.02045 -46.64478 38062 ft 577 kts 90°
2026-04-25 16:57 29.01984 -46.55306 38065 ft 577 kts 90°
2026-04-25 16:57 29.01916 -46.46140 38064 ft 576 kts 90°
2026-04-25 16:58 29.01843 -46.37046 38064 ft 576 kts 90°
2026-04-25 16:58 29.01763 -46.27896 38066 ft 576 kts 90°
2026-04-25 16:59 29.01677 -46.18741 38065 ft 576 kts 90°
2026-04-25 16:59 29.01585 -46.09590 38070 ft 575 kts 90°
2026-04-25 17:00 29.01487 -46.00445 38066 ft 575 kts 90°
2026-04-25 17:00 29.01382 -45.91296 38068 ft 575 kts 90°
2026-04-25 17:01 29.01272 -45.82158 38073 ft 575 kts 90°
2026-04-25 17:01 29.01155 -45.73007 38068 ft 575 kts 90°
2026-04-25 17:02 29.01032 -45.63857 38073 ft 575 kts 90°
2026-04-25 17:02 29.00903 -45.54721 38070 ft 575 kts 90°
2026-04-25 17:03 29.00767 -45.45580 38072 ft 575 kts 90°
2026-04-25 17:03 29.00626 -45.36442 38074 ft 575 kts 90°
2026-04-25 17:04 29.00479 -45.27367 38071 ft 575 kts 90°
2026-04-25 17:04 29.00326 -45.18236 38075 ft 575 kts 90°
2026-04-25 17:05 29.00171 -45.09104 37715 ft 576 kts 90°
2026-04-25 17:05 28.99455 -45.00049 37078 ft 565 kts 102°
2026-04-25 17:05 28.98540 -44.95689 37196 ft 563 kts 109°
2026-04-25 17:06 28.97278 -44.91464 37327 ft 561 kts 114°
2026-04-25 17:06 28.95925 -44.87341 37456 ft 563 kts 113°
2026-04-25 17:06 28.93210 -44.78878 37325 ft 570 kts 113°
2026-04-25 17:07 28.90496 -44.70404 37454 ft 567 kts 113°
2026-04-25 17:07 28.87778 -44.61966 37087 ft 570 kts 113°
2026-04-25 17:08 28.85055 -44.53536 37076 ft 567 kts 113°
2026-04-25 17:08 28.82314 -44.45080 37078 ft 569 kts 113°
2026-04-25 17:09 28.79568 -44.36624 37078 ft 568 kts 113°
2026-04-25 17:09 28.76813 -44.28162 37074 ft 569 kts 113°
2026-04-25 17:10 28.74053 -44.19704 37304 ft 569 kts 113°
2026-04-25 17:10 28.72671 -44.15478 37433 ft 569 kts 113°
2026-04-25 17:10 28.71302 -44.11294 37520 ft 570 kts 113°
2026-04-25 17:11 28.69910 -44.07048 37117 ft 572 kts 113°
2026-04-25 17:11 28.68528 -44.02831 37096 ft 566 kts 113°
2026-04-25 17:11 28.66223 -43.95819 37096 ft 570 kts 113°
2026-04-25 17:12 28.63440 -43.87369 37095 ft 569 kts 113°
2026-04-25 17:12 28.60652 -43.78922 37308 ft 569 kts 113°
2026-04-25 17:13 28.59257 -43.74705 37439 ft 569 kts 113°
2026-04-25 17:13 28.58334 -43.71915 37520 ft 570 kts 113°
2026-04-25 17:13 28.55053 -43.62025 37690 ft 572 kts 113°
2026-04-25 17:14 28.53663 -43.57841 37826 ft 572 kts 113°
2026-04-25 17:14 28.52250 -43.53594 37886 ft 573 kts 113°
2026-04-25 17:14 28.50838 -43.49353 38025 ft 573 kts 113°
2026-04-25 17:14 28.49421 -43.45107 38066 ft 574 kts 113°
2026-04-25 17:15 28.46581 -43.36607 37952 ft 575 kts 113°
2026-04-25 17:15 28.45181 -43.32423 37692 ft 573 kts 113°
2026-04-25 17:15 28.43762 -43.28189 37427 ft 571 kts 113°
2026-04-25 17:16 28.42352 -43.23986 37166 ft 569 kts 113°
2026-04-25 17:16 28.40939 -43.19781 36911 ft 569 kts 113°
2026-04-25 17:16 28.39526 -43.15581 36661 ft 568 kts 113°
2026-04-25 17:16 28.38115 -43.11390 36411 ft 567 kts 113°
2026-04-25 17:17 28.36707 -43.07215 36157 ft 566 kts 113°
2026-04-25 17:17 28.35311 -43.03079 35911 ft 565 kts 113°
2026-04-25 17:17 28.33887 -42.98864 35690 ft 564 kts 113°
2026-04-25 17:17 28.32500 -42.94766 35442 ft 563 kts 113°
2026-04-25 17:18 28.31095 -42.90618 35196 ft 562 kts 113°
2026-04-25 17:18 28.29694 -42.86485 34961 ft 561 kts 113°
2026-04-25 17:18 28.28289 -42.82349 34729 ft 560 kts 113°
2026-04-25 17:18 28.26888 -42.78226 34489 ft 560 kts 113°
2026-04-25 17:19 28.25489 -42.74113 34257 ft 559 kts 113°
2026-04-25 17:19 28.24091 -42.70010 34029 ft 558 kts 113°
2026-04-25 17:19 28.22687 -42.65895 33772 ft 558 kts 113°
2026-04-25 17:19 28.21282 -42.61785 33504 ft 559 kts 113°
2026-04-25 17:20 28.19879 -42.57680 33243 ft 559 kts 113°
2026-04-25 17:20 28.18489 -42.53621 32992 ft 559 kts 113°
2026-04-25 17:20 28.17081 -42.49512 32735 ft 559 kts 113°
2026-04-25 17:20 28.15666 -42.45386 32480 ft 560 kts 112°
2026-04-25 17:21 28.14251 -42.41265 32233 ft 560 kts 112°
2026-04-25 17:21 28.12837 -42.37153 31988 ft 560 kts 112°
2026-04-25 17:21 28.11424 -42.33048 31744 ft 560 kts 112°
2026-04-25 17:21 28.10002 -42.28920 31711 ft 562 kts 112°
2026-04-25 17:22 28.08580 -42.24797 31953 ft 561 kts 112°
2026-04-25 17:22 28.07635 -42.22059 32063 ft 562 kts 112°
2026-04-25 17:22 28.05746 -42.16592 32299 ft 562 kts 112°
2026-04-25 17:22 28.04322 -42.12475 32614 ft 559 kts 112°
2026-04-25 17:23 28.02914 -42.08407 33164 ft 551 kts 113°
2026-04-25 17:23 28.01526 -42.04396 33975 ft 540 kts 113°
2026-04-25 17:23 28.00130 -42.00524 34862 ft 522 kts 117°
2026-04-25 17:23 27.98539 -41.96936 35824 ft 501 kts 123°
2026-04-25 17:24 27.96841 -41.93494 36094 ft 501 kts 123°
2026-04-25 17:24 27.95128 -41.90028 36150 ft 506 kts 123°
2026-04-25 17:24 27.91670 -41.82996 36379 ft 513 kts 123°
2026-04-25 17:25 27.89948 -41.79482 36800 ft 508 kts 123°
2026-04-25 17:25 27.88235 -41.75988 36976 ft 509 kts 123°
2026-04-25 17:25 27.86533 -41.72524 37086 ft 512 kts 123°
2026-04-25 17:25 27.84792 -41.68986 37106 ft 518 kts 123°
2026-04-25 17:26 27.81243 -41.61784 37108 ft 530 kts 123°
2026-04-25 17:26 27.77613 -41.54426 37111 ft 542 kts 123°
2026-04-25 17:27 27.73898 -41.46906 37108 ft 554 kts 122°
2026-04-25 17:27 27.71390 -41.41836 37110 ft 561 kts 122°
2026-04-25 17:28 27.66273 -41.31512 37109 ft 570 kts 122°
2026-04-25 17:28 27.62402 -41.23714 37108 ft 569 kts 122°
2026-04-25 17:29 27.58522 -41.15917 37108 ft 569 kts 122°
2026-04-25 17:29 27.54634 -41.08117 37108 ft 569 kts 122°
2026-04-25 17:30 27.50769 -41.00380 37109 ft 570 kts 122°
2026-04-25 17:30 27.46869 -40.92586 37108 ft 570 kts 122°
2026-04-25 17:31 27.42994 -40.84856 37106 ft 570 kts 123°
2026-04-25 17:31 27.39089 -40.77081 37109 ft 570 kts 123°
2026-04-25 17:32 27.35179 -40.69310 37106 ft 570 kts 123°
2026-04-25 17:32 27.31266 -40.61547 37108 ft 570 kts 123°
2026-04-25 17:33 27.27375 -40.53841 37108 ft 570 kts 123°
2026-04-25 17:33 27.23446 -40.46073 37107 ft 570 kts 123°
2026-04-25 17:34 27.19517 -40.38320 37116 ft 571 kts 123°
2026-04-25 17:34 27.15586 -40.30578 37109 ft 571 kts 123°
2026-04-25 17:35 27.11643 -40.22825 37105 ft 571 kts 123°
2026-04-25 17:35 27.07700 -40.15085 37110 ft 571 kts 123°
2026-04-25 17:36 27.03753 -40.07351 37107 ft 571 kts 123°
2026-04-25 17:36 26.99818 -39.99651 37108 ft 571 kts 123°
2026-04-25 17:37 26.96051 -39.91781 37111 ft 572 kts 120°
2026-04-25 17:37 26.92399 -39.83846 37110 ft 573 kts 120°
2026-04-25 17:38 26.89335 -39.77265 37108 ft 573 kts 120°
2026-04-25 17:38 26.85025 -39.68078 37113 ft 573 kts 120°
2026-04-25 17:39 26.81307 -39.60179 37109 ft 573 kts 120°
2026-04-25 17:39 26.77590 -39.52302 37106 ft 573 kts 120°
2026-04-25 17:40 26.73853 -39.44398 37113 ft 573 kts 120°
2026-04-25 17:40 26.70122 -39.36521 37112 ft 573 kts 120°
2026-04-25 17:41 26.66400 -39.28676 37110 ft 573 kts 120°
2026-04-25 17:41 26.62660 -39.20810 37110 ft 573 kts 120°
2026-04-25 17:42 26.58909 -39.12934 37109 ft 573 kts 120°
2026-04-25 17:42 26.55160 -39.05075 37104 ft 573 kts 120°
2026-04-25 17:43 26.51396 -38.97201 37106 ft 574 kts 120°
2026-04-25 17:43 26.47634 -38.89343 37102 ft 574 kts 120°
2026-04-25 17:44 26.43891 -38.81540 37104 ft 574 kts 120°
2026-04-25 17:44 26.40093 -38.73636 37101 ft 574 kts 120°
2026-04-25 17:45 26.37589 -38.68433 37103 ft 574 kts 120°
2026-04-25 17:45 26.32555 -38.57992 37103 ft 574 kts 120°
2026-04-25 17:46 26.28764 -38.50145 37103 ft 574 kts 120°
2026-04-25 17:46 26.24970 -38.42305 37102 ft 574 kts 120°
2026-04-25 17:47 26.21193 -38.34515 37106 ft 574 kts 120°
2026-04-25 17:47 26.17393 -38.26692 37106 ft 574 kts 120°
2026-04-25 17:48 26.11676 -38.14946 37104 ft 574 kts 120°
2026-04-25 17:49 26.07863 -38.07129 37105 ft 575 kts 120°
2026-04-25 17:49 26.04045 -37.99317 37101 ft 575 kts 120°
2026-04-25 17:50 26.00224 -37.91512 37102 ft 575 kts 120°
2026-04-25 17:50 25.96420 -37.83755 37104 ft 575 kts 120°
2026-04-25 17:51 25.92589 -37.75957 37102 ft 575 kts 120°
2026-04-25 17:51 25.88753 -37.68161 37108 ft 575 kts 120°
2026-04-25 17:52 25.84906 -37.60357 37089 ft 575 kts 120°
2026-04-25 17:52 25.81056 -37.52561 37085 ft 575 kts 120°
2026-04-25 17:53 25.77210 -37.44787 37087 ft 575 kts 120°
2026-04-25 17:53 25.73352 -37.37002 37104 ft 575 kts 120°
2026-04-25 17:54 25.69521 -37.29282 37112 ft 575 kts 120°
2026-04-25 17:54 25.65653 -37.21503 37121 ft 575 kts 121°
2026-04-25 17:55 25.61784 -37.13736 37112 ft 575 kts 121°
2026-04-25 17:55 25.57915 -37.05981 37107 ft 575 kts 121°
2026-04-25 17:56 25.54037 -36.98222 37110 ft 575 kts 121°
2026-04-25 17:56 25.50160 -36.90479 37107 ft 575 kts 121°
2026-04-25 17:57 25.46279 -36.82739 37108 ft 575 kts 121°
2026-04-25 17:57 25.42410 -36.75037 37104 ft 575 kts 121°
2026-04-25 17:58 25.38520 -36.67307 37110 ft 575 kts 121°
2026-04-25 17:58 25.34622 -36.59573 37110 ft 575 kts 121°
2026-04-25 17:59 25.31380 -36.53150 37111 ft 575 kts 121°
2026-04-25 17:59 25.26840 -36.44171 37108 ft 575 kts 121°
2026-04-25 18:00 25.23565 -36.37705 37108 ft 575 kts 121°
2026-04-25 18:00 25.19677 -36.30040 37109 ft 575 kts 121°
2026-04-25 18:01 25.15760 -36.22332 37116 ft 576 kts 121°
2026-04-25 18:01 25.11837 -36.14623 37113 ft 576 kts 121°
2026-04-25 18:02 25.07901 -36.06903 37113 ft 576 kts 121°
2026-04-25 18:02 25.03993 -35.99249 37111 ft 576 kts 121°
2026-04-25 18:03 25.00035 -35.91511 37114 ft 576 kts 121°
2026-04-25 18:03 24.96115 -35.83860 37111 ft 576 kts 121°
2026-04-25 18:04 24.92168 -35.76168 37115 ft 576 kts 121°
2026-04-25 18:04 24.88222 -35.68491 37115 ft 576 kts 121°
2026-04-25 18:05 24.84293 -35.60859 37119 ft 576 kts 121°
2026-04-25 18:05 24.80335 -35.53183 37114 ft 576 kts 121°
2026-04-25 18:06 24.76368 -35.45503 37116 ft 576 kts 121°
2026-04-25 18:06 24.72404 -35.37842 37116 ft 576 kts 121°
2026-04-25 18:07 24.68457 -35.30225 37115 ft 576 kts 121°
2026-04-25 18:07 24.64484 -35.22570 37115 ft 576 kts 121°
2026-04-25 18:08 24.60504 -35.14915 37117 ft 576 kts 121°
2026-04-25 18:08 24.56521 -35.07265 37113 ft 576 kts 121°
2026-04-25 18:09 24.52539 -34.99629 37121 ft 576 kts 122°
2026-04-25 18:09 24.48575 -34.92040 37117 ft 576 kts 122°
2026-04-25 18:10 24.44584 -34.84412 37116 ft 576 kts 122°
2026-04-25 18:10 24.40589 -34.76789 37124 ft 576 kts 122°
2026-04-25 18:11 24.36594 -34.69178 37118 ft 576 kts 122°
2026-04-25 18:11 24.32588 -34.61557 37121 ft 576 kts 122°
2026-04-25 18:12 24.28579 -34.53943 37119 ft 576 kts 122°
2026-04-25 18:12 24.24569 -34.46339 37120 ft 576 kts 122°
2026-04-25 18:13 24.20579 -34.38785 37129 ft 576 kts 122°
2026-04-25 18:13 24.16563 -34.31194 37124 ft 576 kts 122°
2026-04-25 18:14 24.10534 -34.19815 37121 ft 576 kts 122°
2026-04-25 18:14 24.06511 -34.12232 37123 ft 576 kts 122°
2026-04-25 18:15 24.02482 -34.04648 37139 ft 576 kts 122°
2026-04-25 18:15 23.98336 -33.97155 37135 ft 574 kts 125°
2026-04-25 18:16 23.94105 -33.89799 37119 ft 575 kts 124°
2026-04-25 18:17 23.87756 -33.78665 37113 ft 575 kts 124°
2026-04-25 18:17 23.83505 -33.71260 37119 ft 575 kts 124°
2026-04-25 18:18 23.79248 -33.63864 37128 ft 575 kts 124°
2026-04-25 18:18 23.74990 -33.56482 37134 ft 574 kts 124°
2026-04-25 18:19 23.70727 -33.49101 37136 ft 574 kts 124°
2026-04-25 18:19 23.66457 -33.41716 37123 ft 575 kts 124°
2026-04-25 18:20 23.62211 -33.34386 37121 ft 574 kts 124°
2026-04-25 18:20 23.57938 -33.27019 37123 ft 574 kts 125°
2026-04-25 18:21 23.53660 -33.19654 37123 ft 574 kts 125°
2026-04-25 18:21 23.49381 -33.12300 37123 ft 574 kts 125°
2026-04-25 18:22 23.45101 -33.04952 37119 ft 574 kts 125°
2026-04-25 18:22 23.40824 -32.97622 37120 ft 573 kts 125°
2026-04-25 18:23 23.36543 -32.90296 37120 ft 573 kts 125°
2026-04-25 18:23 23.32285 -32.83018 37118 ft 573 kts 125°
2026-04-25 18:24 23.27992 -32.75692 37116 ft 573 kts 125°
2026-04-25 18:24 23.23704 -32.68384 37113 ft 573 kts 125°
2026-04-25 18:25 23.19414 -32.61083 37117 ft 573 kts 125°
2026-04-25 18:25 23.15118 -32.53784 37115 ft 573 kts 125°
2026-04-25 18:26 23.10850 -32.46541 37113 ft 572 kts 125°
2026-04-25 18:26 23.06552 -32.39259 37113 ft 572 kts 125°
2026-04-25 18:27 23.02250 -32.31979 37113 ft 572 kts 125°
2026-04-25 18:27 22.97940 -32.24697 37110 ft 572 kts 125°
2026-04-25 18:28 22.93635 -32.17433 37113 ft 572 kts 125°
2026-04-25 18:28 22.89350 -32.10212 37113 ft 572 kts 125°
2026-04-25 18:29 22.82891 -31.99347 37111 ft 571 kts 125°
2026-04-25 18:30 22.74274 -31.84889 37111 ft 570 kts 126°
2026-04-25 18:30 22.69994 -31.77722 37104 ft 570 kts 126°
2026-04-25 18:31 22.65685 -31.70517 37104 ft 569 kts 126°
2026-04-25 18:31 22.61373 -31.63316 37105 ft 569 kts 126°
2026-04-25 18:32 22.57060 -31.56124 37103 ft 568 kts 126°
2026-04-25 18:32 22.52750 -31.48947 37101 ft 568 kts 126°
2026-04-25 18:33 22.48474 -31.41835 37101 ft 568 kts 126°
2026-04-25 18:33 22.44166 -31.34681 37101 ft 568 kts 126°
2026-04-25 18:34 22.39848 -31.27519 37098 ft 567 kts 126°
2026-04-25 18:34 22.35532 -31.20371 37101 ft 567 kts 126°
2026-04-25 18:35 22.31220 -31.13238 37098 ft 567 kts 126°
2026-04-25 18:35 22.26900 -31.06102 37097 ft 567 kts 126°
2026-04-25 18:36 22.22608 -30.99021 37099 ft 566 kts 126°
2026-04-25 18:36 22.18291 -30.91909 37094 ft 566 kts 126°
2026-04-25 18:37 22.13959 -30.84782 37094 ft 566 kts 126°
2026-04-25 18:37 22.09655 -30.77710 37096 ft 565 kts 126°
2026-04-25 18:38 22.05334 -30.70619 37100 ft 565 kts 126°
2026-04-25 18:38 22.01038 -30.63579 37099 ft 565 kts 126°
2026-04-25 18:39 21.96719 -30.56510 37098 ft 564 kts 126°
2026-04-25 18:39 21.92399 -30.49449 37087 ft 564 kts 126°
2026-04-25 18:40 21.88076 -30.42392 37087 ft 564 kts 126°
2026-04-25 18:40 21.83756 -30.35349 37088 ft 563 kts 126°
2026-04-25 18:41 21.79452 -30.28341 37086 ft 563 kts 126°
2026-04-25 18:41 21.75138 -30.21328 37089 ft 562 kts 126°
2026-04-25 18:42 21.72251 -30.16638 37085 ft 562 kts 126°
2026-04-25 18:42 21.66500 -30.07308 37084 ft 561 kts 126°
2026-04-25 18:43 21.62184 -30.00318 37081 ft 561 kts 126°
2026-04-25 18:43 21.57867 -29.93332 37081 ft 561 kts 126°
2026-04-25 18:44 21.53545 -29.86344 37078 ft 560 kts 126°
2026-04-25 18:44 21.49212 -29.79386 37077 ft 559 kts 128°
2026-04-25 18:45 21.44721 -29.72648 37077 ft 558 kts 128°
2026-04-25 18:45 21.40246 -29.65830 37090 ft 558 kts 128°
2026-04-25 18:46 21.35759 -29.59019 37084 ft 558 kts 128°
2026-04-25 18:46 21.32027 -29.53373 37063 ft 558 kts 128°
2026-04-25 18:47 21.26830 -29.45522 37081 ft 545 kts 128°
2026-04-25 18:47 21.24658 -29.42242 37081 ft 533 kts 129°
2026-04-25 18:47 21.23219 -29.40070 37088 ft 526 kts 129°
2026-04-25 18:48 21.18980 -29.33693 37074 ft 534 kts 129°
2026-04-25 18:48 21.14655 -29.27191 37070 ft 533 kts 129°
2026-04-25 18:49 21.10358 -29.20731 37066 ft 533 kts 129°
2026-04-25 18:49 21.06047 -29.14260 37067 ft 533 kts 129°
2026-04-25 18:50 21.01732 -29.07789 37070 ft 533 kts 129°
2026-04-25 18:50 20.97422 -29.01335 37063 ft 532 kts 129°
2026-04-25 18:51 20.93842 -28.95978 37065 ft 532 kts 129°
2026-04-25 18:51 20.88829 -28.88487 37065 ft 532 kts 129°
2026-04-25 18:52 20.84516 -28.82049 37067 ft 532 kts 129°
2026-04-25 18:52 20.80203 -28.75618 37066 ft 532 kts 129°
2026-04-25 18:53 20.75890 -28.69195 37068 ft 531 kts 129°
2026-04-25 18:53 20.71583 -28.62787 37063 ft 531 kts 129°
2026-04-25 18:54 20.65142 -28.53220 37065 ft 530 kts 129°
2026-04-25 18:55 20.60830 -28.46823 37062 ft 530 kts 129°
2026-04-25 18:55 20.56525 -28.40444 37058 ft 529 kts 129°
2026-04-25 18:56 20.52218 -28.34069 37058 ft 529 kts 129°
2026-04-25 18:56 20.47917 -28.27708 37057 ft 528 kts 129°
2026-04-25 18:57 20.43613 -28.21353 37053 ft 528 kts 129°
2026-04-25 18:57 20.39309 -28.15003 37048 ft 527 kts 129°
2026-04-25 18:58 20.35045 -28.08720 37049 ft 527 kts 129°
2026-04-25 18:58 20.28595 -27.99227 37043 ft 526 kts 129°
2026-04-25 18:59 20.20013 -27.86621 37043 ft 525 kts 129°
2026-04-25 19:00 20.13604 -27.77223 37039 ft 525 kts 129°
2026-04-25 19:01 20.07156 -27.67785 37037 ft 525 kts 129°
2026-04-25 19:01 20.02859 -27.61503 37039 ft 525 kts 129°
2026-04-25 19:02 19.96415 -27.52095 37046 ft 524 kts 129°
2026-04-25 19:03 19.90688 -27.43746 37038 ft 524 kts 129°
2026-04-25 19:03 19.85679 -27.36455 37028 ft 524 kts 129°
2026-04-25 19:04 19.79225 -27.27072 37050 ft 524 kts 129°
2026-04-25 19:05 19.70649 -27.14625 37048 ft 523 kts 129°
2026-04-25 19:06 19.66346 -27.08392 37043 ft 523 kts 129°
2026-04-25 19:06 19.59895 -26.99056 37040 ft 522 kts 129°
2026-04-25 19:07 19.53444 -26.89735 37039 ft 521 kts 129°
2026-04-25 19:08 19.47037 -26.80493 37035 ft 520 kts 129°
2026-04-25 19:09 19.39195 -26.69199 37034 ft 519 kts 129°
2026-04-25 19:10 19.32059 -26.58941 37028 ft 518 kts 129°
2026-04-25 19:10 19.27809 -26.52840 37028 ft 517 kts 129°
2026-04-25 19:11 19.23535 -26.46709 37027 ft 516 kts 129°
2026-04-25 19:11 19.19269 -26.40596 37025 ft 516 kts 129°
2026-04-25 19:12 19.15003 -26.34491 37023 ft 515 kts 129°
2026-04-25 19:12 19.10767 -26.28434 37018 ft 515 kts 129°
2026-04-25 19:13 19.06507 -26.22347 37016 ft 514 kts 129°
2026-04-25 19:13 19.02255 -26.16276 37015 ft 514 kts 129°
2026-04-25 19:14 18.98004 -26.10212 37018 ft 513 kts 129°
2026-04-25 19:14 18.93753 -26.04147 37018 ft 513 kts 129°
2026-04-25 19:15 18.89538 -25.98062 37020 ft 513 kts 129°
2026-04-25 19:15 18.85328 -25.91973 37031 ft 512 kts 129°
2026-04-25 19:16 18.81150 -25.85947 37029 ft 512 kts 129°
2026-04-25 19:16 18.76942 -25.79886 37024 ft 511 kts 129°
2026-04-25 19:17 18.72737 -25.73836 37025 ft 511 kts 129°
2026-04-25 19:17 18.68536 -25.67798 37023 ft 510 kts 129°
2026-04-25 19:18 18.64339 -25.61770 37019 ft 509 kts 129°
2026-04-25 19:18 18.60142 -25.55748 37013 ft 509 kts 129°
2026-04-25 19:19 18.55944 -25.49732 37016 ft 508 kts 129°
2026-04-25 19:19 18.51757 -25.43736 37011 ft 508 kts 129°
2026-04-25 19:20 18.47593 -25.37779 37008 ft 507 kts 129°
2026-04-25 19:20 18.43405 -25.31792 37006 ft 507 kts 129°
2026-04-25 19:21 18.39212 -25.25805 37006 ft 507 kts 129°
2026-04-25 19:21 18.32959 -25.16887 37008 ft 506 kts 129°
2026-04-25 19:22 18.28778 -25.10931 37005 ft 506 kts 129°
2026-04-25 19:23 18.22500 -25.01996 37003 ft 505 kts 129°
2026-04-25 19:23 18.16227 -24.93083 37005 ft 505 kts 129°
2026-04-25 19:24 18.12073 -24.87186 37006 ft 505 kts 129°
2026-04-25 19:25 18.03708 -24.75329 37003 ft 504 kts 129°
2026-04-25 19:25 17.99526 -24.69409 37003 ft 504 kts 129°
2026-04-25 19:26 17.95345 -24.63496 37001 ft 503 kts 129°
2026-04-25 19:26 17.91190 -24.57625 36997 ft 503 kts 129°
2026-04-25 19:27 17.88399 -24.53683 36999 ft 503 kts 129°
2026-04-25 19:27 17.82844 -24.45847 36998 ft 502 kts 130°
2026-04-25 19:28 17.78672 -24.39967 36994 ft 502 kts 130°
2026-04-25 19:28 17.74524 -24.34126 36995 ft 501 kts 130°
2026-04-25 19:29 17.70355 -24.28266 36990 ft 501 kts 130°
2026-04-25 19:29 17.66153 -24.22430 36986 ft 500 kts 130°
2026-04-25 19:30 17.61953 -24.16606 36986 ft 500 kts 130°
2026-04-25 19:30 17.57761 -24.10789 36985 ft 500 kts 130°
2026-04-25 19:31 17.53567 -24.04973 36979 ft 500 kts 130°
2026-04-25 19:31 17.49369 -23.99156 36981 ft 500 kts 130°
2026-04-25 19:32 17.45202 -23.93387 36978 ft 499 kts 130°
2026-04-25 19:32 17.42395 -23.89504 36976 ft 499 kts 130°
2026-04-25 19:33 17.36812 -23.81788 36980 ft 499 kts 130°
2026-04-25 19:33 17.32609 -23.75984 36980 ft 499 kts 130°
2026-04-25 19:34 17.29115 -23.71163 36979 ft 499 kts 130°
2026-04-25 19:34 17.24915 -23.65372 36974 ft 499 kts 130°
2026-04-25 19:35 17.20031 -23.58646 36982 ft 499 kts 130°
2026-04-25 19:35 17.16507 -23.53795 36981 ft 499 kts 130°
2026-04-25 19:36 17.12302 -23.48013 36983 ft 499 kts 130°
2026-04-25 19:36 17.08101 -23.42241 36985 ft 499 kts 130°
2026-04-25 19:37 17.03890 -23.36460 36983 ft 499 kts 130°
2026-04-25 19:37 16.99712 -23.30729 36983 ft 498 kts 130°
2026-04-25 19:38 16.95513 -23.24974 36976 ft 498 kts 130°
2026-04-25 19:38 16.91304 -23.19209 36966 ft 497 kts 130°
2026-04-25 19:39 16.87132 -23.13501 36956 ft 497 kts 130°
2026-04-25 19:39 16.82938 -23.07768 36946 ft 496 kts 130°
2026-04-25 19:40 16.78750 -23.02045 36943 ft 495 kts 130°
2026-04-25 19:40 16.74678 -22.96248 36940 ft 497 kts 124°
2026-04-25 19:41 16.71743 -22.89690 36933 ft 500 kts 110°
2026-04-25 19:41 16.69812 -22.84006 36930 ft 500 kts 111°
2026-04-25 19:42 16.67055 -22.76079 36930 ft 499 kts 111°
2026-04-25 19:42 16.64680 -22.69278 36931 ft 499 kts 111°
2026-04-25 19:43 16.62303 -22.62473 36934 ft 499 kts 111°
2026-04-25 19:43 16.59940 -22.55715 36933 ft 499 kts 111°
2026-04-25 19:44 16.57560 -22.48914 36938 ft 499 kts 111°
2026-04-25 19:44 16.55178 -22.42117 36938 ft 499 kts 111°
2026-04-25 19:45 16.52794 -22.35321 36942 ft 499 kts 111°
2026-04-25 19:45 16.50406 -22.28524 36944 ft 499 kts 111°
2026-04-25 19:46 16.48033 -22.21774 36947 ft 499 kts 111°
2026-04-25 19:46 16.45637 -22.14969 36949 ft 499 kts 112°
2026-04-25 19:47 16.43243 -22.08180 36955 ft 499 kts 112°
2026-04-25 19:47 16.40843 -22.01382 36953 ft 500 kts 112°
2026-04-25 19:48 16.38440 -21.94580 36954 ft 500 kts 112°
2026-04-25 19:48 16.36035 -21.87782 36953 ft 500 kts 112°
2026-04-25 19:49 16.34033 -21.82128 36959 ft 500 kts 112°
2026-04-25 19:49 16.31234 -21.74233 36955 ft 500 kts 112°
2026-04-25 19:50 16.27616 -21.64053 36952 ft 499 kts 112°
2026-04-25 19:51 16.25180 -21.57270 36948 ft 499 kts 112°
2026-04-25 19:51 16.22764 -21.50552 36947 ft 499 kts 112°
2026-04-25 19:52 16.20332 -21.43789 36947 ft 499 kts 112°
2026-04-25 19:52 16.17896 -21.37019 36944 ft 499 kts 112°
2026-04-25 19:53 16.15461 -21.30261 36940 ft 498 kts 112°
2026-04-25 19:53 16.13027 -21.23514 36938 ft 498 kts 112°
2026-04-25 19:54 16.10589 -21.16761 36933 ft 498 kts 112°
2026-04-25 19:54 16.08165 -21.10056 36932 ft 498 kts 112°
2026-04-25 19:55 16.05725 -21.03317 36930 ft 498 kts 112°
2026-04-25 19:55 16.03281 -20.96570 36934 ft 498 kts 112°
2026-04-25 19:56 16.00838 -20.89836 36930 ft 498 kts 112°
2026-04-25 19:56 15.98395 -20.83108 36930 ft 498 kts 112°
2026-04-25 19:57 15.95965 -20.76423 36933 ft 498 kts 112°
2026-04-25 19:57 15.93514 -20.69688 36928 ft 498 kts 112°
2026-04-25 19:58 15.91065 -20.62966 36926 ft 498 kts 112°
2026-04-25 19:58 15.88609 -20.56232 36923 ft 498 kts 112°
2026-04-25 19:59 15.86167 -20.49545 36923 ft 498 kts 112°
2026-04-25 19:59 15.83707 -20.42813 36925 ft 498 kts 112°
2026-04-25 20:00 15.81249 -20.36096 36921 ft 498 kts 112°
2026-04-25 20:00 15.78786 -20.29372 36926 ft 498 kts 112°
2026-04-25 20:01 15.75102 -20.19329 36924 ft 498 kts 112°
2026-04-25 20:01 15.72629 -20.12597 36915 ft 498 kts 112°
2026-04-25 20:02 15.70159 -20.05877 36914 ft 497 kts 112°
2026-04-25 20:02 15.67709 -19.99218 36919 ft 497 kts 112°
2026-04-25 20:03 15.65296 -19.92482 36933 ft 497 kts 111°
2026-04-25 20:03 15.62908 -19.85750 36936 ft 497 kts 111°
2026-04-25 20:04 15.60508 -19.79020 36913 ft 496 kts 111°
2026-04-25 20:04 15.58119 -19.72342 36905 ft 496 kts 111°
2026-04-25 20:05 15.55714 -19.65627 36901 ft 496 kts 111°
2026-04-25 20:05 15.53331 -19.58979 36913 ft 495 kts 111°
2026-04-25 20:06 15.50906 -19.52223 36927 ft 495 kts 112°
2026-04-25 20:06 15.48762 -19.45469 36917 ft 495 kts 101°
2026-04-25 20:07 15.48438 -19.41913 36904 ft 495 kts 89°
2026-04-25 20:07 15.48761 -19.38370 36900 ft 493 kts 77°
2026-04-25 20:07 15.49702 -19.35012 36890 ft 490 kts 65°
2026-04-25 20:07 15.51242 -19.31889 36891 ft 485 kts 53°
2026-04-25 20:08 15.55232 -19.26269 36891 ft 483 kts 50°
2026-04-25 20:08 15.59119 -19.20556 36889 ft 485 kts 53°
2026-04-25 20:09 15.62824 -19.14713 36623 ft 484 kts 53°
2026-04-25 20:09 15.64660 -19.11775 36154 ft 485 kts 53°
2026-04-25 20:09 15.66472 -19.08872 35652 ft 486 kts 53°
2026-04-25 20:10 15.68311 -19.05928 35105 ft 485 kts 53°
2026-04-25 20:10 15.70150 -19.02983 34531 ft 486 kts 53°
2026-04-25 20:10 15.71815 -18.99877 33907 ft 492 kts 64°
2026-04-25 20:10 15.72891 -18.96527 33275 ft 496 kts 75°
2026-04-25 20:11 15.73355 -18.92965 32635 ft 499 kts 86°
2026-04-25 20:11 15.73173 -18.89359 31964 ft 502 kts 97°
2026-04-25 20:11 15.72348 -18.85843 31280 ft 504 kts 109°
2026-04-25 20:11 15.70884 -18.82543 30792 ft 501 kts 121°
2026-04-25 20:12 15.68869 -18.79617 30305 ft 497 kts 132°
2026-04-25 20:12 15.66378 -18.77163 29760 ft 492 kts 144°
2026-04-25 20:12 15.63600 -18.75201 29276 ft 485 kts 149°
2026-04-25 20:12 15.62659 -18.74545 29110 ft 483 kts 147°
2026-04-25 20:13 15.58362 -18.70830 28282 ft 477 kts 136°
2026-04-25 20:13 15.56112 -18.68327 27819 ft 472 kts 132°
2026-04-25 20:13 15.54031 -18.65770 27347 ft 468 kts 130°
2026-04-25 20:13 15.51995 -18.63158 26881 ft 463 kts 129°
2026-04-25 20:14 15.49995 -18.60561 26431 ft 458 kts 129°
2026-04-25 20:14 15.48015 -18.57990 25963 ft 454 kts 129°
2026-04-25 20:14 15.46046 -18.55443 25497 ft 449 kts 129°
2026-04-25 20:14 15.44094 -18.52928 25044 ft 444 kts 129°
2026-04-25 20:15 15.42158 -18.50437 24585 ft 440 kts 129°
2026-04-25 20:15 15.40246 -18.47980 24140 ft 435 kts 129°
2026-04-25 20:15 15.38354 -18.45550 23685 ft 431 kts 129°
2026-04-25 20:15 15.36483 -18.43148 23171 ft 427 kts 129°
2026-04-25 20:16 15.34620 -18.40755 22683 ft 422 kts 130°
2026-04-25 20:16 15.32812 -18.38433 22423 ft 419 kts 130°
2026-04-25 20:16 15.30970 -18.36071 22172 ft 422 kts 130°
2026-04-25 20:16 15.29126 -18.33707 21922 ft 420 kts 130°
2026-04-25 20:17 15.27294 -18.31359 21673 ft 418 kts 130°
2026-04-25 20:17 15.25476 -18.29028 21427 ft 416 kts 130°
2026-04-25 20:17 15.23656 -18.26697 21175 ft 415 kts 130°
2026-04-25 20:17 15.21845 -18.24377 20908 ft 412 kts 130°
2026-04-25 20:18 15.20045 -18.22072 20507 ft 410 kts 130°
2026-04-25 20:18 15.18259 -18.19787 19999 ft 407 kts 130°
2026-04-25 20:18 15.16483 -18.17513 19439 ft 404 kts 131°
2026-04-25 20:18 15.14725 -18.15264 18900 ft 401 kts 131°
2026-04-25 20:19 15.12965 -18.13012 18350 ft 398 kts 131°
2026-04-25 20:19 15.11228 -18.10791 17800 ft 395 kts 131°
2026-04-25 20:19 15.09510 -18.08597 17257 ft 390 kts 131°
2026-04-25 20:19 15.07809 -18.06425 16731 ft 385 kts 131°
2026-04-25 20:20 15.06148 -18.04304 16214 ft 381 kts 131°
2026-04-25 20:20 15.04496 -18.02195 15995 ft 376 kts 131°
2026-04-25 20:20 15.03373 -18.00765 15908 ft 379 kts 131°
2026-04-25 20:20 15.01708 -17.98644 15884 ft 380 kts 131°
2026-04-25 20:21 15.00048 -17.96526 15886 ft 379 kts 131°
2026-04-25 20:21 14.98385 -17.94407 15885 ft 379 kts 131°
2026-04-25 20:21 14.96725 -17.92290 15884 ft 379 kts 131°
2026-04-25 20:21 14.95079 -17.90193 15884 ft 379 kts 131°
2026-04-25 20:22 14.93416 -17.88074 15881 ft 379 kts 131°
2026-04-25 20:22 14.92292 -17.86643 15881 ft 379 kts 131°
2026-04-25 20:22 14.90090 -17.83838 15879 ft 379 kts 131°
2026-04-25 20:22 14.88426 -17.81721 15878 ft 379 kts 131°
2026-04-25 20:23 14.86761 -17.79602 15877 ft 379 kts 131°
2026-04-25 20:23 14.85095 -17.77482 15873 ft 379 kts 131°
2026-04-25 20:23 14.83439 -17.75374 15870 ft 379 kts 131°
2026-04-25 20:23 14.81772 -17.73256 15867 ft 379 kts 131°
2026-04-25 20:24 14.80110 -17.71142 15863 ft 379 kts 131°
2026-04-25 20:24 14.78447 -17.69028 15864 ft 379 kts 131°
2026-04-25 20:24 14.76787 -17.66919 15861 ft 379 kts 131°
2026-04-25 20:24 14.75120 -17.64802 15859 ft 379 kts 131°
2026-04-25 20:25 14.73478 -17.62717 15859 ft 379 kts 131°
2026-04-25 20:25 14.71809 -17.60597 15855 ft 379 kts 131°
2026-04-25 20:25 14.70150 -17.58493 15858 ft 379 kts 131°
2026-04-25 20:25 14.68480 -17.56373 15853 ft 379 kts 131°
2026-04-25 20:26 14.66815 -17.54262 15858 ft 379 kts 131°
2026-04-25 20:26 14.65170 -17.52176 15857 ft 379 kts 131°
2026-04-25 20:26 14.63500 -17.50057 15856 ft 379 kts 131°
2026-04-25 20:26 14.61839 -17.47952 15858 ft 379 kts 131°
2026-04-25 20:27 14.60175 -17.45844 15855 ft 378 kts 131°
2026-04-25 20:27 14.58510 -17.43734 15883 ft 380 kts 131°
2026-04-25 20:27 14.56828 -17.41606 16321 ft 382 kts 131°
2026-04-25 20:27 14.55149 -17.39480 16698 ft 385 kts 131°
2026-04-25 20:28 14.53457 -17.37338 16826 ft 377 kts 131°
2026-04-25 20:28 14.51850 -17.35298 16853 ft 357 kts 131°
2026-04-25 20:28 14.50325 -17.33364 16853 ft 339 kts 131°
2026-04-25 20:28 14.48827 -17.31470 16851 ft 343 kts 131°
2026-04-25 20:29 14.47310 -17.29556 16854 ft 345 kts 131°
2026-04-25 20:29 14.45794 -17.27641 16851 ft 344 kts 131°
2026-04-25 20:29 14.44296 -17.25749 16852 ft 344 kts 131°
2026-04-25 20:29 14.42785 -17.23840 16852 ft 344 kts 131°
2026-04-25 20:30 14.41262 -17.21940 16845 ft 343 kts 134°
2026-04-25 20:30 14.39396 -17.20448 16847 ft 338 kts 156°
2026-04-25 20:30 14.37182 -17.19747 16851 ft 331 kts 177°
2026-04-25 20:30 14.34914 -17.19894 16856 ft 326 kts 194°
2026-04-25 20:31 14.32680 -17.20332 16844 ft 326 kts 194°
2026-04-25 20:31 14.30463 -17.20769 16706 ft 324 kts 194°
2026-04-25 20:31 14.28253 -17.21205 16411 ft 322 kts 194°
2026-04-25 20:31 14.26092 -17.21632 15999 ft 319 kts 194°
2026-04-25 20:32 14.23927 -17.22065 15522 ft 316 kts 194°
2026-04-25 20:32 14.21775 -17.22500 15092 ft 313 kts 194°
2026-04-25 20:32 14.19648 -17.22936 14666 ft 310 kts 194°
2026-04-25 20:32 14.17541 -17.23373 14214 ft 307 kts 194°
2026-04-25 20:33 14.15465 -17.23810 13793 ft 303 kts 194°
2026-04-25 20:33 14.13411 -17.24250 13332 ft 299 kts 194°
2026-04-25 20:33 14.11376 -17.24693 12827 ft 297 kts 194°
2026-04-25 20:33 14.10038 -17.24988 12458 ft 296 kts 194°
2026-04-25 20:34 14.07350 -17.25595 11770 ft 294 kts 194°
2026-04-25 20:34 14.05359 -17.26060 11268 ft 292 kts 194°
2026-04-25 20:34 14.03385 -17.26534 10752 ft 291 kts 194°
2026-04-25 20:34 14.01419 -17.27020 10248 ft 289 kts 194°
2026-04-25 20:35 13.99514 -17.27503 9972 ft 281 kts 194°
2026-04-25 20:35 13.97596 -17.27998 9871 ft 289 kts 194°
2026-04-25 20:35 13.95640 -17.28508 9862 ft 289 kts 194°
2026-04-25 20:35 13.93692 -17.29016 9858 ft 289 kts 194°
2026-04-25 20:36 13.91743 -17.29525 9853 ft 289 kts 194°
2026-04-25 20:36 13.89791 -17.30035 9856 ft 289 kts 194°
2026-04-25 20:36 13.87839 -17.30544 9857 ft 289 kts 194°
2026-04-25 20:36 13.85883 -17.31054 9856 ft 289 kts 194°
2026-04-25 20:37 13.83932 -17.31564 9851 ft 290 kts 194°
2026-04-25 20:37 13.81978 -17.32077 9860 ft 290 kts 194°
2026-04-25 20:37 13.80021 -17.32590 9851 ft 289 kts 194°
2026-04-25 20:37 13.78035 -17.32886 9855 ft 289 kts 177°
2026-04-25 20:38 13.76116 -17.32391 9854 ft 290 kts 154°
2026-04-25 20:38 13.74534 -17.31120 9858 ft 291 kts 130°
2026-04-25 20:38 13.73595 -17.29279 9857 ft 293 kts 106°
2026-04-25 20:38 13.73475 -17.27189 9856 ft 296 kts 82°
2026-04-25 20:39 13.74208 -17.25206 9854 ft 301 kts 58°
2026-04-25 20:39 13.75679 -17.23684 9851 ft 303 kts 33°
2026-04-25 20:39 13.77629 -17.22876 9860 ft 305 kts 13°
2026-04-25 20:39 13.79018 -17.22624 9851 ft 305 kts
2026-04-25 20:40 13.81789 -17.22221 9576 ft 303 kts
2026-04-25 20:40 13.83850 -17.21829 9175 ft 298 kts 12°
2026-04-25 20:40 13.85862 -17.21354 8721 ft 294 kts 14°
2026-04-25 20:40 13.87833 -17.20831 8238 ft 290 kts 14°
2026-04-25 20:41 13.89771 -17.20293 7746 ft 286 kts 15°
2026-04-25 20:41 13.91681 -17.19756 7272 ft 282 kts 15°
2026-04-25 20:41 13.93552 -17.19230 6973 ft 274 kts 14°
2026-04-25 20:41 13.95417 -17.18709 6873 ft 280 kts 14°
2026-04-25 20:42 13.97253 -17.18198 6850 ft 267 kts 14°
2026-04-25 20:42 13.99045 -17.17701 6853 ft 268 kts 14°
2026-04-25 20:42 14.00849 -17.17203 6853 ft 269 kts 14°
2026-04-25 20:42 14.02654 -17.16705 6852 ft 268 kts 14°
2026-04-25 20:43 14.04459 -17.16205 6854 ft 269 kts 14°
2026-04-25 20:43 14.06255 -17.15708 6855 ft 268 kts 14°
2026-04-25 20:43 14.08039 -17.15215 6855 ft 268 kts 14°
2026-04-25 20:43 14.09843 -17.14716 6854 ft 268 kts 14°
2026-04-25 20:44 14.11642 -17.14217 6781 ft 266 kts 14°
2026-04-25 20:44 14.13422 -17.13725 6484 ft 264 kts 14°
2026-04-25 20:44 14.15187 -17.13235 6079 ft 260 kts 14°
2026-04-25 20:44 14.16899 -17.12762 5905 ft 253 kts 14°
2026-04-25 20:45 14.18638 -17.12281 5852 ft 261 kts 14°
2026-04-25 20:45 14.20380 -17.11799 5852 ft 258 kts 13°
2026-04-25 20:45 14.22119 -17.11317 5838 ft 258 kts 13°
2026-04-25 20:45 14.23847 -17.10839 5639 ft 256 kts 14°
2026-04-25 20:46 14.25554 -17.10367 5244 ft 253 kts 14°
2026-04-25 20:46 14.27237 -17.09904 4953 ft 246 kts 14°
2026-04-25 20:46 14.28907 -17.09443 4870 ft 253 kts 14°
2026-04-25 20:46 14.30609 -17.08974 4854 ft 253 kts 14°
2026-04-25 20:47 14.32312 -17.08503 4847 ft 253 kts 14°
2026-04-25 20:47 14.33979 -17.08041 4726 ft 250 kts 14°
2026-04-25 20:47 14.35628 -17.07585 4562 ft 240 kts 14°
2026-04-25 20:47 14.37226 -17.07152 4168 ft 237 kts 12°
2026-04-25 20:48 14.38829 -17.06896 3985 ft 231 kts
2026-04-25 20:48 14.40465 -17.06837 4005 ft 237 kts 360°
2026-04-25 20:48 14.42125 -17.06870 4001 ft 238 kts 359°
2026-04-25 20:48 14.43782 -17.06892 4000 ft 237 kts 359°
2026-04-25 20:49 14.45428 -17.06920 4000 ft 238 kts 359°
2026-04-25 20:49 14.47090 -17.06946 4004 ft 238 kts 359°
2026-04-25 20:49 14.48740 -17.06973 3865 ft 236 kts 359°
2026-04-25 20:49 14.50385 -17.07001 3548 ft 234 kts 359°
2026-04-25 20:50 14.51980 -17.07025 3168 ft 222 kts 360°
2026-04-25 20:50 14.53503 -17.07051 3032 ft 216 kts 359°
2026-04-25 20:50 14.54987 -17.07073 2728 ft 211 kts 359°
2026-04-25 20:50 14.56417 -17.07100 2492 ft 196 kts 359°
2026-04-25 20:51 14.57703 -17.07117 2390 ft 174 kts
2026-04-25 20:51 14.58873 -17.07136 2039 ft 161 kts
2026-04-25 20:51 14.59928 -17.07153 1786 ft 148 kts 359°
2026-04-25 20:51 14.60960 -17.07169 1356 ft 147 kts 359°
2026-04-25 20:52 14.61975 -17.07193 997 ft 143 kts 358°
2026-04-25 20:52 14.62620 -17.07215 848 ft 136 kts 359°
2026-04-25 20:52 14.63864 -17.07242 573 ft 138 kts 357°
2026-04-25 20:52 14.64842 -17.07276 439 ft 138 kts 354°
2026-04-25 20:53 14.65776 -17.07259 304 ft 134 kts 358°
2026-04-25 20:53 14.66573 -17.07284 281 ft 84 kts 359°
2026-04-25 20:53 14.66970 -17.07283 279 ft 21 kts 360°
2026-04-25 20:53 14.67002 -17.07282 279 ft 4 kts
2026-04-25 20:54 14.67034 -17.07272 282 ft 5 kts 22°
2026-04-25 20:54 14.67066 -17.07242 279 ft 7 kts 50°
2026-04-25 20:54 14.67076 -17.07191 278 ft 8 kts 85°
2026-04-25 20:54 14.67078 -17.07125 277 ft 10 kts 88°
2026-04-25 20:55 14.67078 -17.07066 277 ft 3 kts 91°
2026-04-25 20:55 14.67078 -17.07050 277 ft 2 kts 90°
2026-04-25 20:55 14.67078 -17.07025 277 ft 5 kts 90°
2026-04-25 20:55 14.67093 -17.06992 277 ft 5 kts 49°
2026-04-25 20:56 14.67129 -17.06982 277 ft 6 kts
2026-04-25 20:56 14.67175 -17.06979 277 ft 7 kts
2026-04-25 20:56 14.67228 -17.06979 276 ft 8 kts
2026-04-25 20:56 14.67287 -17.06980 276 ft 9 kts 359°
2026-04-25 20:57 14.67351 -17.06981 276 ft 10 kts 359°
2026-04-25 20:57 14.67406 -17.06981 275 ft 0 kts
2026-04-25 20:57 14.67413 -17.06981 275 ft 2 kts
2026-04-25 20:57 14.67431 -17.06981 275 ft 3 kts 360°
2026-04-25 20:58 14.67455 -17.06981 275 ft 1 kts 359°
2026-04-25 20:59 14.67468 -17.06981 275 ft 3 kts 359°
2026-04-25 20:59 14.67495 -17.06981 275 ft 5 kts
2026-04-25 20:59 14.67527 -17.06968 275 ft 5 kts 28°
2026-04-25 20:59 14.67544 -17.06933 275 ft 6 kts 78°
2026-04-25 21:00 14.67541 -17.06910 275 ft 0 kts 96°
2026-04-25 21:01 14.67541 -17.06909 275 ft 1 kts 96°
2026-04-25 21:01 14.67538 -17.06874 275 ft 8 kts 93°
2026-04-25 21:01 14.67538 -17.06810 274 ft 4 kts 86°
2026-04-25 21:01 14.67560 -17.06776 274 ft 17 kts 44°
2026-04-25 21:02 14.67598 -17.06767 274 ft 1 kts
2026-04-25 21:02 14.67611 -17.06767 274 ft 3 kts
2026-04-25 21:02 14.67622 -17.06766 274 ft 1 kts
2026-04-25 21:02 14.67626 -17.06766 274 ft 0 kts